Location: Earls Croome
(52.0667°N, 2.2000°W)
Time: 10:48:54
(UTC+00:00)

Lacrosse 5 rocket - Pass Details

Date: 17 November 2019
Orbit: 460 x 637 km, 57.0° (Epoch: 05 December)

Event Time Altitude Azimuth Distance (km) Brightness Sun altitude
Exits shadow 05:10:59 42° 6° (N) 678 1.7 -21.3°
Maximum altitude 05:11:06 42° 12° (NNE) 676 1.8 -21.3°
Drops below altitude 10° 05:14:33 10° 85° (E) 1,611 4.9 -20.8°
Sets 05:16:45 0° 93° (E) 2,484 6.3 -20.4°
